SCP
1 1 0 0 0 0 -0 -0 -0 -0 -0 -0 -0 0 0 0 0 0 0 0 0 0 0 0 0 0 0 0 0 -0 -0 -0 -0 -0 -0 -0 -0 -0 -0 -0 -0 -0 -0 -0 -0 -0 0 0 0
0 0 0 0 0 0 -0 -0 -0 -0 -0 -0 -0 -0 -0 0 0 0 0 0 0 0 0 0 0 0 0 0 0 0 -0 -0 -0 -0 -0 -0 -0 -0 -0 -0 -0 -0 -0 -0 -0 -0 0 0 0
0 0 0 0 0 -0 -0 -0 -0 -0 -0 -0 -0 -0 -0 0 0 0 0 0 0 0 0 0 0 0 0 0 0 0 0 -0 -0 -0 -0 -0 -0 -0 -0 -0 -0 -0 -0 -0 -0 -0 0 0 0
0 0 0 0 0 -0 -0 -0 -0 -0 -0 -0 -0 -0 -0 -0 0 0 0 0 0 0 0 0 0 0 0 0 0 0 0 0 -0 -0 -0 -0 -0 -0 -0 -0 -0 -0 -0 -0 -0 -0 -0 0 0
0 0 0 0 0 -0 -0 -0 -0 -0 -0 -0 -0 -0 -0 -0 -0 0 0 0 0 0 0 0 0 0 0 0 0 0 0 0 0 0 0 -0 -0 -0 -0 -0 -0 -0 -0 -0 -0 -0 -0 -0 0
0 0 0 0 0 0 0 0 0 0 0 0 -0 -0 -0 -0 -0 0 0 0 0 0 0 0 0 0 0 0 0 0 0 0 0 0 0 0 -0 -0 -0 -0 -0 -0 -0 -0 -0 -0 -0 0 0
0 0 0 0 0 0 0 0 0 0 0 0 0 0 -0 0 0 0 0 0 0 0 0 0 0 0 0 0 0 0 0 0 0 0 0 0 0 0 0 0 0 0 -0 -0 -0 0 0 0 0
0 0 0 0 0 0 0 0 0 0 0 0 0 0 0 0 0 0 0 0 0 0 0 0 0 0 0 0 0 0 0 0 0 0 0 0 0 0 0 0 0 0 0 0 0 0 0 0 0
0 0 0 0 0 0 0 0 0 0 0 0 0 0 0 0 0 0 0 0 0 0 0 0 0 0 0 0 0 0 0 0 0 0 0 0 0 0 0 0 0 0 0 0 0 0 0 0 0
0 0 0 0 0 0 0 0 0 0 0 0 0 0 0 0 0 0 0 0 0 0 0 0 0 0 0 0 0 0 0 0 0 0 0 0 0 0 0 0 0 0 0 0 0 0 0 0 0
0 0 0 0 0 0 0 0 0 0 0 0 0 0 0 0 0 0 0 0 0 0 0 0 0 0 0 0 0 0 0 0 0 0 0 0 0 0 0 0 0 0 0 0 0 0 0 0 0
0 0 0 0 0 0 0 0 0 0 0 0 0 0 0 0 0 0 0 0 0 0 0 0 0 0 0 0 0 0 0 0 0 0 0 0 0 0 0 0 0 0 0 0 0 0 0 0 0
0 0 0 0 0 0 0 0 0 0 0 0 0 0 0 0 0 0 0 0 0 0 0 0 0 0 0 0 0 0 0 0 0 0 0 0 0 0 0 0 0 0 0 0 0 0 0 0 0
0 0 0 0 0 0 0 0 0 0 0 0 0 0 0 0 0 0 0 0 0 0 0 0 0 0 0 0 0 0 0 0 0 0 0 0 0 0 0 0 0 0 0 0 0 0 0 0 0
0 0 0 0 0 0 0 0 0 0 0 0 0 0 0 0 0 0 0 0 0 0 0 0 0 0 0 0 0 0 0 0 0 0 0 0 0 0 0 0 0 0 0 0 0 0 0 0 0
0 0 0 0 0 0 0 0 0 0 0 0 0 0 0 0 0 0 0 0 0 0 0 0 0 0 0 0 0 0 0 0 0 0 0 0 0 0 0 0 0 0 0 0 0 0 0 0 0
0 0 0 0 0 0 0 0 0 0 0 0 0 0 0 0 0 0 0 0 0 0 0 0 0 0 0 0 0 0 0 0 0 0 0 0 0 0 0 0 0 0 0 0 0 0 0 0 0
0 0 0 0 0 0 0 0 0 0 0 0 0 0 0 0 0 0 0 0 0 0 0 0 0 0 0 0 0 0 0 0 1 1 1 1 0 0 1 1 1 1 1 0 0 0 0 0 0
0 0 0 0 0 0 0 0 0 0 0 0 0 0 0 0 0 0 0 0 0 0 0 0 0 0 0 0 0 0 0 0 1 1 1 1 1 1 1 1 1 1 1 0 0 0 0 0 0
0 0 0 0 0 0 0 0 0 0 0 0 0 0 0 0 0 0 0 0 0 0 0 0 0 0 0 0 0 0 0 1 1 1 1 1 1 1 1 1 1 1 1 0 0 0 0 0 0
0 0 0 0 0 0 0 0 0 0 0 0 0 0 0 0 0 0 0 0 0 0 0 0 0 0 0 0 0 0 0 1 1 1 1 1 1 1 1 1 1 1 1 0 0 0 0 0 0
0 0 0 0 0 0 0 0 0 0 0 0 0 0 0 0 0 0 0 0 0 0 0 0 0 0 0 0 0 0 0 1 1 1 1 1 1 1 1 1 1 1 1 0 0 0 0 0 0
0 0 0 0 0 0 0 0 0 0 0 0 0 0 0 0 0 0 0 0 0 0 0 0 0 0 0 0 0 0 0 0 1 1 1 1 1 1 1 1 1 1 1 1 0 0 0 0 0
0 0 0 0 0 0 0 0 0 0 0 0 0 0 0 0 0 0 0 0 0 0 0 0 0 0 0 0 0 0 0 0 0 1 1 1 1 1 1 1 1 1 1 1 1 0 0 0 0
0 0 0 0 0 0 0 0 0 0 0 0 0 0 0 0 0 0 0 0 0 0 0 0 0 0 0 0 0 0 0 0 0 0 1 1 1 1 1 1 1 1 1 1 1 1 0 0 0
0 0 0 0 0 0 0 0 0 0 0 0 0 0 0 0 0 0 0 0 0 0 0 0 0 0 0 0 0 0 0 0 0 0 0 0 0 1 1 1 1 1 1 1 1 1 0 0 0
0 0 0 0 0 0 0 0 0 0 0 0 0 0 0 0 0 0 0 0 0 0 0 0 0 0 0 0 0 0 0 0 0 0 0 0 0 0 0 0 0 0 0 0 0 1 0 0 0
0 0 0 0 0 0 0 0 0 0 0 0 0 0 0 0 0 0 0 0 0 0 0 0 0 0 0 0 0 0 0 0 0 0 0 0 0 0 0 0 0 0 0 0 0 0 0 0 0
0 0 -0 0 0 0 0 0 0 0 0 0 0 0 0 0 0 0 0 0 0 0 0 0 0 0 0 0 0 0 0 0 0 0 0 0 0 0 0 0 0 0 0 0 0 0 0 0 0
0 0 -0 -0 0 0 0 0 0 0 0 0 0 0 0 0 0 0 0 0 0 0 0 0 0 0 0 0 0 0 0 0 0 0 0 0 0 0 0 0 0 0 0 0 0 0 0 0 0
Wind_Speed
7 6 4 4 3 6 11 8 5 5 5 6 5 3 4 5 5 6 5 11 13 15 14 15 13 13 12 11 10 10 9 9 9 9 8 8 8 7 6 5 5 4 4 4 4 4 4 4 4
5 5 4 4 4 9 10 6 8 8 6 4 4 4 4 7 7 6 8 11 14 14 13 13 14 13 12 11 10 10 10 9 9 8 8 8 7 7 6 5 5 4 4 3 3 4 4 4 4
5 5 3 2 7 9 9 6 7 7 5 5 5 6 6 7 5 6 9 13 14 12 11 13 13 13 12 11 10 10 9 9 9 8 8 8 7 7 6 6 5 4 3 3 3 3 4 4 4
4 4 2 4 9 7 5 4 3 4 5 7 5 7 7 7 4 8 13 14 13 12 11 13 12 12 11 11 10 9 9 9 8 8 8 8 8 7 7 6 5 4 3 3 2 3 3 4 4
4 3 3 6 7 6 4 4 2 5 7 9 8 8 9 8 8 11 12 12 12 11 10 12 11 11 10 10 10 10 10 9 9 9 8 8 8 7 7 6 5 4 4 3 3 2 3 3 3
2 1 4 5 7 6 6 4 3 6 8 8 7 8 9 7 8 9 10 9 10 9 9 11 11 9 10 10 10 10 10 10 10 9 9 8 8 8 7 7 5 5 4 4 3 3 3 4 3
1 1 4 5 6 7 7 6 8 7 10 11 9 7 8 8 7 7 7 6 6 7 8 7 10 11 11 9 9 10 10 10 10 10 10 9 8 8 8 7 6 5 5 4 4 4 4 5 4
2 2 4 4 5 7 7 7 9 11 11 11 11 8 7 8 7 6 5 4 4 6 7 7 7 8 9 11 12 11 11 11 11 11 11 10 9 9 9 10 8 6 5 5 5 5 5 5 5
3 2 4 4 4 7 8 8 8 9 12 14 14 12 9 9 7 5 4 3 2 4 5 6 6 6 6 6 8 10 11 11 11 11 12 11 10 10 10 8 8 7 6 6 6 6 6 6 6
2 3 7 6 6 9 13 12 8 8 13 13 14 14 11 9 8 7 5 4 2 2 4 6 7 7 7 6 6 7 8 9 10 9 11 10 8 6 5 10 8 7 6 6 5 5 7 8 7
6 7 8 8 8 9 11 15 16 8 12 12 11 11 10 11 11 11 10 9 8 7 5 6 7 8 8 6 6 5 4 5 8 9 9 8 7 6 6 6 8 9 9 9 8 9 8 6 4
8 11 8 7 7 8 9 9 14 18 11 10 11 11 13 14 13 12 11 11 10 10 10 9 9 7 8 8 7 6 5 5 6 8 10 7 5 6 6 5 5 6 5 5 6 5 6 6 7
10 10 14 17 19 18 18 16 14 15 12 12 13 14 15 14 12 11 11 10 10 10 10 10 10 9 8 7 6 7 7 7 7 6 7 8 6 7 6 6 5 6 5 6 6 7 7 7 7
10 13 12 11 11 11 17 15 10 12 10 12 14 14 14 13 13 12 12 11 11 10 10 9 9 8 9 7 7 7 7 7 7 6 9 9 7 7 6 7 6 6 6 6 6 8 6 6 6
12 12 11 8 6 6 7 14 11 10 9 12 13 12 12 13 12 13 12 11 11 10 10 9 8 8 8 8 8 6 7 7 7 7 9 9 9 9 8 7 7 7 7 8 7 8 6 6 6
6 6 5 8 5 3 1 8 10 9 9 12 12 11 11 11 12 12 12 11 11 10 10 9 8 8 8 7 7 6 6 7 7 6 6 9 10 11 8 7 7 7 6 6 6 6 7 7 7
5 4 3 6 9 4 7 9 8 9 10 11 11 11 11 12 13 13 12 12 11 10 9 9 9 8 8 8 6 6 6 7 7 6 6 8 10 11 9 7 7 7 6 6 7 7 8 8 7
3 3 1 5 8 9 11 10 8 9 11 11 11 12 12 13 13 13 13 12 11 10 9 9 8 8 8 6 6 5 5 5 6 7 8 9 8 10 8 7 8 7 6 6 7 8 7 6 6
4 3 1 6 5 6 10 10 8 9 11 12 12 13 13 13 13 13 12 12 11 10 10 10 10 9 7 6 6 5 5 5 5 5 8 9 10 9 8 6 7 7 7 7 8 6 8 7 6
2 2 4 7 5 5 8 8 7 8 11 12 13 13 14 15 15 14 13 13 12 11 11 10 10 10 8 6 6 5 6 6 5 5 7 9 10 10 8 9 7 7 6 7 7 6 5 5 5
2 2 2 5 6 6 5 6 5 7 9 12 12 13 14 14 15 15 15 14 13 11 11 9 10 10 9 9 6 6 5 5 4 5 5 7 9 10 9 10 8 8 8 7 7 7 7 5 5
2 3 1 6 7 4 4 3 6 7 10 13 14 14 14 14 14 14 15 14 13 12 11 10 9 9 9 8 7 8 6 6 6 5 4 6 7 9 10 10 10 9 8 8 8 8 7 6 5
4 2 3 6 5 4 0 4 6 7 12 15 15 14 14 14 14 14 14 13 13 12 11 10 10 9 9 8 7 7 6 5 5 4 4 4 4 6 7 8 8 9 8 9 10 9 9 7 7
0 5 6 6 6 4 3 4 5 8 12 14 13 14 14 14 14 13 13 13 12 12 11 10 10 10 10 9 8 7 8 7 6 4 3 2 1 2 4 5 7 8 7 9 9 9 11 9 8
3 6 5 7 5 3 2 1 5 8 10 10 12 12 12 12 13 13 14 14 13 13 12 11 12 11 11 10 9 9 8 7 6 5 3 2 1 0 1 3 4 5 6 7 7 8 9 10 10
3 5 5 4 1 4 2 2 5 5 6 7 8 9 11 11 11 13 13 13 12 12 12 12 12 11 11 11 10 9 9 6 5 6 4 4 3 2 1 1 1 2 3 5 6 6 7 8 9
1 3 4 3 1 2 4 3 4 3 6 8 9 10 11 11 11 12 12 12 12 12 11 11 11 11 11 11 11 10 10 9 8 7 6 4 4 3 3 2 2 1 1 2 4 4 5 5 7
5 3 3 3 3 1 3 1 2 5 7 8 9 10 11 11 11 11 10 11 11 10 10 10 11 11 10 10 9 8 10 10 9 8 9 8 7 5 5 4 3 3 2 1 1 2 3 4 4
1 1 2 1 3 3 1 3 4 4 5 7 8 9 9 10 10 10 9 8 9 10 9 9 10 11 11 11 10 10 10 10 9 9 9 8 7 6 6 6 5 4 3 2 1 1 2 4 4
4 3 3 3 2 2 0 4 3 1 3 4 6 7 7 8 9 9 9 8 8 9 9 10 10 10 10 10 10 10 10 10 10 10 10 9 9 8 7 6 6 6 5 4 3 1 1 2 3
Wind_Direction
197 182 192 222 205 95 80 73 68 69 56 53 52 43 27 27 357 47 103 152 142 145 143 149 150 147 146 145 143 141 139 138 140 141 144 147 150 151 151 151 153 156 159 163 160 158 158 153 150
166 166 218 235 111 95 81 64 65 58 64 65 60 47 58 61 43 81 134 146 148 146 149 149 148 150 150 150 148 147 146 145 145 146 147 149 150 151 152 152 152 154 158 162 163 162 159 154 147
170 214 260 108 81 79 81 60 65 75 48 25 50 46 39 44 67 113 134 150 151 148 149 141 152 152 154 155 154 154 151 151 153 154 153 154 154 154 156 155 152 152 156 159 162 166 160 153 147
204 220 221 104 90 71 52 53 64 81 59 41 40 66 67 43 53 112 137 152 150 150 151 144 158 157 160 162 160 160 158 159 162 161 159 159 159 158 158 157 153 152 156 154 154 164 161 159 153
237 241 129 106 89 70 47 27 50 52 52 43 42 67 73 56 79 120 142 152 155 155 155 150 160 164 166 168 168 168 167 169 171 170 167 167 165 164 163 161 155 155 158 152 146 151 155 156 149
237 216 124 100 88 73 54 52 74 61 61 46 41 66 73 78 100 125 141 159 162 159 161 155 161 174 177 179 179 179 179 180 180 178 175 174 174 170 166 162 159 161 158 150 142 139 144 142 144
315 109 111 108 102 77 44 47 46 58 56 37 17 64 95 92 94 120 138 155 164 168 173 175 173 180 188 195 196 193 193 190 186 184 182 183 182 178 172 167 166 165 160 154 146 138 135 133 134
340 138 127 112 102 69 37 65 47 39 55 38 21 36 76 96 110 115 117 137 175 191 194 198 200 202 196 193 197 206 205 201 196 192 189 188 189 189 182 184 170 172 169 161 153 144 134 130 128
283 178 106 80 79 63 37 63 51 55 64 54 42 36 55 89 102 103 103 119 179 230 235 232 229 229 238 233 197 204 213 210 206 200 196 200 205 194 189 181 158 179 178 170 162 155 144 148 142
2 82 69 61 75 87 61 51 31 63 49 36 36 44 57 70 67 60 46 35 13 294 260 254 252 246 242 244 235 224 220 211 215 213 200 208 215 206 207 134 172 189 186 180 174 162 174 210 179
53 65 86 80 91 97 85 63 37 54 43 19 19 35 48 53 50 43 34 24 14 2 348 319 290 266 257 246 246 239 233 226 227 227 217 215 213 205 206 182 179 192 195 197 169 196 205 209 194
85 59 68 70 78 75 73 79 60 47 41 33 45 47 47 45 41 35 29 21 12 10 5 353 336 309 279 262 255 251 245 237 231 229 230 220 218 223 210 209 203 194 198 204 209 219 201 211 201
99 95 82 83 83 84 86 82 74 45 37 42 50 50 46 44 40 36 30 24 14 8 360 354 347 339 322 299 275 264 255 251 247 239 242 227 226 228 218 216 206 215 208 195 215 222 206 214 214
100 108 102 94 94 86 82 70 58 30 30 44 46 45 42 38 32 28 23 18 11 3 355 348 345 347 334 316 293 275 270 259 258 249 244 239 230 236 230 229 213 216 215 212 215 217 206 215 212
129 122 102 65 95 123 102 62 39 22 31 43 40 39 36 32 27 22 15 8 5 358 351 348 340 345 336 324 308 292 278 272 262 254 252 245 237 237 234 235 222 215 212 214 217 213 213 215 209
175 181 129 58 31 35 164 72 37 24 34 39 31 28 25 25 19 14 7 2 358 353 349 346 343 340 332 321 303 292 279 272 265 259 259 256 245 238 234 234 234 225 218 215 209 218 209 210 216
205 232 136 90 31 51 84 85 51 34 35 35 25 18 14 12 11 7 360 356 351 347 344 343 342 337 329 319 299 285 276 265 259 252 250 253 250 244 233 230 233 227 218 217 213 212 214 217 218
312 290 100 84 61 84 94 95 67 44 36 29 20 13 9 5 3 359 354 349 344 343 342 342 338 335 330 320 310 292 279 271 262 251 242 242 246 247 240 232 229 225 216 216 217 211 214 228 225
324 295 88 92 104 87 99 95 71 45 32 22 14 8 4 358 354 355 350 347 342 341 341 340 337 338 334 327 321 311 300 289 270 259 251 239 237 237 234 234 233 221 215 213 212 207 210 218 226
277 236 128 110 106 115 118 100 75 45 30 19 8 3 359 354 352 354 350 348 343 341 339 335 337 336 335 327 313 296 293 282 274 264 255 242 234 229 227 224 225 218 210 207 204 198 204 210 217
60 327 149 142 129 137 161 137 73 46 29 22 14 5 2 357 352 351 350 347 344 343 340 335 335 333 334 330 319 311 300 285 273 264 254 242 232 224 223 225 221 215 208 205 198 193 201 203 211
133 47 199 177 197 148 250 210 69 19 18 15 10 5 2 358 354 352 349 347 346 342 337 334 334 335 337 332 331 325 313 305 299 289 269 251 235 225 219 221 220 212 208 206 203 196 195 191 197
21 355 225 200 205 171 51 275 72 17 7 5 3 3 1 359 356 354 352 349 349 344 341 340 339 341 340 337 336 328 321 310 302 299 283 265 240 227 220 219 218 214 212 212 209 199 198 196 193
260 156 143 178 209 194 25 316 50 19 355 352 357 1 3 360 358 358 359 358 354 352 353 352 352 351 348 346 348 345 337 332 330 332 321 299 256 227 220 217 217 218 216 214 210 205 203 203 202
231 229 203 193 202 99 45 355 52 14 357 352 352 357 3 3 1 3 4 3 1 359 0 360 0 0 359 359 0 353 348 347 352 352 350 358 3 14 205 209 218 217 217 215 209 207 206 205 204
17 301 311 308 48 118 159 62 64 18 2 1 3 3 4 6 5 5 4 4 5 5 4 6 4 4 3 3 2 2 359 356 4 9 10 21 18 11 34 130 196 209 211 213 212 213 209 207 208
321 43 347 328 98 154 122 116 131 29 17 14 12 10 10 9 8 7 5 6 8 9 7 7 6 9 7 9 8 9 10 13 14 17 21 24 28 33 43 59 77 111 189 212 212 212 207 205 209
22 1 255 270 270 167 139 123 27 14 10 9 10 8 8 8 8 10 9 4 6 9 7 9 11 10 8 11 14 14 15 19 19 22 27 26 27 33 44 52 64 70 82 123 187 196 195 193 190
38 91 26 54 334 314 134 96 52 360 355 354 2 7 7 3 2 5 5 3 4 8 12 13 15 14 11 12 18 22 23 24 26 29 27 26 28 28 35 36 43 54 59 66 82 145 175 181 171
29 21 310 311 95 1 61 105 103 344 340 343 355 4 3 359 358 2 4 5 9 11 12 18 19 17 15 15 21 27 27 29 31 31 30 30 33 32 35 41 40 39 41 46 48 48 174 172 160